FW7273 Weather Reports


time (UTC)temp
C
wind
direction
speed
KPH
gust
KPH
rain 1hr
cm
rain 24hr
cm
rain mn
cm
humidity
%
barometer
mb
20260505075020 15 293 0.0 3.2 0.03 0.23 0.03 84 1008.4
20260505074022 16 256 3.2 4.8 0.03 0.23 0.03 83 1009.0
20260505073025 16 0.0 0.0 0.03 0.23 0.03 80 1009.1
20260505072027 16 0.0 0.0 0.03 0.23 0.03 79 1009.4
20260505071029 16 158 3.2 6.4 0.00 0.20 0.00 77 1009.6
20260505070031 17 135 8.0 9.7 0.00 0.20 0.00 74 1009.8
20260505065015 17 147 12.9 20.9 0.00 0.20 0.00 67 1010.3
20260505064017 19 117 12.9 19.3 0.00 0.20 0.00 61 1009.5
20260505063019 21 175 9.7 12.9 0.00 0.20 0.00 56 1008.0
20260505062042 21 107 3.2 6.4 0.00 0.20 0.00 56 1007.4
20260505061024 21 37 6.4 8.0 0.00 0.20 0.00 56 1007.2
20260505060020 21 31 6.4 11.3 0.00 0.20 0.00 56 1007.2
20260505055015 21 68 8.0 11.3 0.00 0.20 0.00 56 1007.0
20260505054030 21 2 9.7 16.1 0.00 0.20 0.00 56 1006.7
20260505053032 21 8 4.8 11.3 0.00 0.23 0.00 56 1006.7
20260505052016 21 37 6.4 12.9 0.00 0.23 0.00 56 1006.9
20260505051018 21 173 6.4 11.3 0.00 0.23 0.00 56 1006.7
20260505041032 21 9 4.8 8.0 0.00 0.33 0.23 59 1006.2
20260505040017 21 23 6.4 12.9 0.00 0.36 0.23 59 1006.4
20260505035019 21 14 4.8 6.4 0.00 0.36 0.23 59 1006.4
20260505034021 21 27 3.2 6.4 0.00 0.36 0.23 59 1006.7
20260505033023 21 45 4.8 9.7 0.00 0.36 0.23 59 1006.5
20260505032039 21 23 3.2 4.8 0.00 0.36 0.23 58 1006.7
20260505031015 21 29 4.8 6.4 0.00 0.36 0.23 58 1006.4
20260505030050 22 314 3.2 4.8 0.00 0.36 0.23 57 1006.4
20260505025052 22 67 4.8 6.4 0.00 0.36 0.23 57 1006.4
20260505024016 22 88 1.6 3.2 0.00 0.36 0.23 57 1006.2
20260505023018 22 5 3.2 4.8 0.00 0.36 0.23 56 1005.8
20260505022040 22 342 4.8 6.4 0.00 0.36 0.23 55 1005.7
20260505021022 22 358 4.8 8.0 0.00 0.36 0.23 55 1005.5
20260505020044 22 54 3.2 4.8 0.00 0.36 0.23 55 1005.4
20260505015046 22 68 4.8 6.4 0.00 0.36 0.23 55 1005.3
20260505014029 22 19 4.8 6.4 0.00 0.36 0.23 55 1005.2
20260505013030 22 10 3.2 4.8 0.00 0.36 0.23 55 1005.2
20260505012032 23 322 3.2 4.8 0.00 0.36 0.23 55 1005.2
20260505011017 23 68 1.6 3.2 0.00 0.36 0.23 56 1005.0
20260505010019 23 0.0 3.2 0.00 0.36 0.23 58 1005.0
20260505005021 23 0.0 0.0 0.00 0.36 0.23 59 1004.8
20260505004018 23 0.0 1.6 0.00 0.36 0.23 61 1004.7
20260505003046 23 0.0 1.6 0.00 0.36 0.23 61 1004.8
20260505002028 23 293 1.6 4.8 0.00 0.36 0.23 61 1004.8
20260505001030 23 0.0 0.0 0.00 0.36 0.23 59 1004.8
20260505000052 23 315 0.0 4.8 0.00 0.36 0.23 59 1004.8
20260504235016 23 332 1.6 3.2 0.00 0.36 0.23 59 1004.8
20260504234019 23 5 1.6 4.8 0.00 0.36 0.23 60 1004.8
20260504233102 23 334 1.6 3.2 0.00 0.36 0.23 59 1005.2
20260504232023 23 23 4.8 6.4 0.00 0.36 0.23 57 1004.5
20260504231025 23 339 9.7 12.9 0.00 0.36 0.23 56 1004.8
20260504230028 24 313 4.8 8.0 0.00 0.36 0.23 54 1005.2
20260504225030 25 24 3.2 6.4 0.00 0.36 0.23 52 1005.7
20260504224032 25 280 6.4 12.9 0.00 0.36 0.23 51 1005.8
20260504223016 25 31 3.2 4.8 0.00 0.36 0.23 51 1006.2
20260504222018 25 0 1.6 6.4 0.00 0.36 0.23 52 1006.2
20260504221020 25 334 3.2 8.0 0.00 0.36 0.23 51 1006.2
20260504220016 25 341 8.0 11.3 0.00 0.36 0.23 49 1006.2
20260504215025 26 9 8.0 11.3 0.00 0.36 0.23 48 1006.0
20260504214027 26 8 8.0 9.7 0.00 0.36 0.23 48 1006.0
20260504213029 26 305 8.0 11.3 0.00 0.36 0.23 48 1006.2
20260504212031 26 338 6.4 11.3 0.00 0.36 0.23 48 1006.3
20260504211033 26 318 14.5 17.7 0.00 0.36 0.23 47 1006.4
20260504210017 26 342 9.7 14.5 0.00 0.36 0.23 48 1006.4
20260504205019 26 315 11.3 12.9 0.00 0.36 0.23 47 1006.5
20260504204021 25 45 6.4 8.0 0.00 0.36 0.23 50 1006.7
20260504203023 24 329 9.7 19.3 0.00 0.36 0.23 53 1006.8
20260504202045 25 3 9.7 16.1 0.00 0.36 0.23 54 1007.0
20260504201047 25 355 6.4 11.3 0.00 0.36 0.23 54 1007.2
20260504200030 24 19 8.0 16.1 0.00 0.36 0.23 55 1007.2
20260504195026 24 344 8.0 12.9 0.00 0.36 0.23 55 1007.2
20260504194016 23 339 8.0 14.5 0.00 0.36 0.23 56 1006.8
20260504193019 21 10 9.7 16.1 0.00 0.36 0.23 61 1006.0
20260504192015 20 14 9.7 17.7 0.00 0.36 0.23 66 1006.0
20260504191017 19 347 11.3 16.1 0.00 0.36 0.23 67 1008.0
20260504190019 20 298 6.4 9.7 0.00 0.36 0.23 63 1008.0
20260504185042 20 284 8.0 11.3 0.00 0.36 0.23 64 1008.3
20260504184024 20 300 8.0 12.9 0.00 0.36 0.23 67 1008.3
20260504183026 19 272 8.0 12.9 0.13 0.36 0.23 70 1008.1
20260504182027 -17 23 8.0 8.0 0.13 0.36 0.23 1008.6
20260504181030 17 18 3.2 6.4 0.18 0.36 0.23 77 1008.6
20260504180032 17 308 4.8 6.4 0.20 0.36 0.23 80 1008.6
20260504175016 16 31 3.2 4.8 0.20 0.36 0.23 80 1008.5
20260504174018 17 339 8.0 11.3 0.20 0.36 0.23 78 1008.5
20260504173020 -17 0.0 0.0 0.08 0.23 0.10 1008.5
20260504172022 18 353 3.2 6.4 0.08 0.23 0.10 71 1008.8
20260504171024 18 290 4.8 4.8 0.03 0.18 0.05 69 1009.3
20260504151032 20 15 4.8 8.0 0.00 0.15 0.03 54 1010.3
20260504141016 21 28 6.4 9.7 0.00 0.15 0.03 55 1010.4
20260504081015 16 315 3.2 3.2 0.00 0.15 0.03 75 1011.3